COSMOS 2251 DEB

Track COSMOS 2251 DEB now!
10-day predictions
COSMOS 2251 DEB is classified as:


NORAD ID: 34544
Int'l Code: 1993-036UE
Perigee: 780.7 km
Apogee: 1,372.1 km
Inclination: 73.9 °
Period: 106.6 minutes
Semi major axis: 7447 km
RCS: 0.0085 m2 (small)
Launch date: June 16, 1993
Source: Commonwealth of Independent States (former USSR) (CIS)

Note: This is SATELLITE DEBRIS
Your satellite tracking list
Your tracking list is empty





NASA's NSSDC Master Catalog

Two Line Element Set (TLE):
1 34544U 93036UE  15124.99429223  .00000258  00000-0  26590-3 0  9994
2 34544 073.9185 328.0462 0397077 351.6150 128.0472 13.50816507305822

Source of the keplerian elements: AFSPC

N2YO: 4396